Weather in Malyshevo

Russia / Khabarovsk Krai     48°43′51″N   135°36′41″E
temp.,
°C
wind,
m/s
gust,
m/s
humid.,
%
clouds,
%
prec.,
mm/h
press.,
hPa
HPBL,
m
9 march, tue
tue901:00−10s589169 0.0 1020166
04:00−8s6128885 0.0 1017271
07:00−7ssw4985100 0.0 1013233
10:00−4ssw6128195 0.0 1009494
13:00−2sw8129395 0.2 10061023
16:00−1wsw7109098 1.9 1004903
19:00−5w469387 0.1 1005111
22:00−5wnw349792 0.1 100974
10 march, wed
wed1001:00−8nne469594 0.0 101293
04:00−9nnw238997 0.0 101621
07:00−10w238299 0.0 102021
10:00−8sw348449 0.0 1022126
13:00−5sw57840 0.0 1022365
16:00−4wsw698510 0.0 1021459
19:00−7sw589028 0.0 1021108
22:00−6ssw5108764 0.0 1022217
11 march, thu
thu1101:00−7ssw4788100 0.0 1020139
04:00−7sw51085100 0.0 1019245
07:00−9wsw7129229 0.0 1018197
10:00−6w10168214 0.0 1020424
13:00−1wnw67700 0.0 1021945
16:000w46760 0.0 1023595
19:00−5wsw57790 0.0 102484
22:00−7wsw59780 0.0 1026111
12 march, fri
fri1201:00−9wsw588214 0.0 1026119
04:00−11sw58827 0.0 1027110
07:00−13sw34830 0.0 103033
10:00−10sw46830 0.0 1030177
13:00−6sw57810 0.0 1030359
16:00−3sw698112 0.0 1028436
19:00−7sw45887 0.0 102761
22:00−7ssw589022 0.0 1028115
13 march, sat
sat1301:00−7ssw479299 0.0 1027130
04:00−8ssw5890100 0.0 1025137
07:00−8ssw579268 0.0 1025103
10:00−5sw6118738 0.0 1024351
13:000sw610860 0.0 1022531
16:000sw612880 0.0 1020480
19:00−3sw45880 0.0 102064
22:00−6ssw23900 0.0 102125